FWI20N LFPO-TNCM

Flight info

Callsign FWI20N
Flight time N/A
Altitude 36000
Route LGL UN491 OTOFE DCT ALUTA DCT TAKAS/M085F360 DCT TAMEL DCT 4730N02000W 45N030W 40N040W/M085F380 35N046W 30N052W 25N057W DCT RKDIA M576 PJM
Aircraft A35K/H-SDE2E3GHIJ3J4J5LM1ORWXY/LB1D1

Departure

Time N/A
Airport Paris-Orly Airport (LFPO)

Arrival

Time 2026-05-04 04:43
Airport Princess Juliana International Airport (TNCM)
Time Latitude Longitude Altitude Speed Heading
2026-05-04 02:56 28.07496 -54.00235 38187 ft 498 kts 226°
2026-05-04 02:57 28.04911 -54.02852 38189 ft 498 kts 226°
2026-05-04 02:57 27.99785 -54.08035 38189 ft 498 kts 226°
2026-05-04 02:58 27.94623 -54.13250 38190 ft 498 kts 226°
2026-05-04 02:58 27.89456 -54.18463 38188 ft 498 kts 226°
2026-05-04 02:59 27.84282 -54.23675 38189 ft 499 kts 226°
2026-05-04 02:59 27.79105 -54.28883 38190 ft 498 kts 226°
2026-05-04 03:00 27.73930 -54.34081 38193 ft 497 kts 226°
2026-05-04 03:00 27.68759 -54.39270 38198 ft 499 kts 226°
2026-05-04 03:01 27.63567 -54.44474 38205 ft 499 kts 226°
2026-05-04 03:01 27.59214 -54.48830 38184 ft 499 kts 226°
2026-05-04 03:02 27.54022 -54.54019 38199 ft 498 kts 226°
2026-05-04 03:02 27.48866 -54.59167 38193 ft 499 kts 226°
2026-05-04 03:03 27.43650 -54.64368 38175 ft 499 kts 226°
2026-05-04 03:03 27.38482 -54.69513 38193 ft 499 kts 226°
2026-05-04 03:04 27.33274 -54.74691 38194 ft 499 kts 226°
2026-05-04 03:04 27.28066 -54.79865 38192 ft 500 kts 226°
2026-05-04 03:05 27.22852 -54.85035 38189 ft 500 kts 226°
2026-05-04 03:05 27.17636 -54.90202 38194 ft 500 kts 226°
2026-05-04 03:06 27.12420 -54.95362 38193 ft 500 kts 225°
2026-05-04 03:06 27.07192 -55.00527 38192 ft 501 kts 225°
2026-05-04 03:07 27.01971 -55.05678 38189 ft 500 kts 225°
2026-05-04 03:07 26.96751 -55.10821 38194 ft 499 kts 225°
2026-05-04 03:08 26.91532 -55.15958 38192 ft 500 kts 225°
2026-05-04 03:08 26.86293 -55.21108 38193 ft 501 kts 225°
2026-05-04 03:09 26.81052 -55.26253 38186 ft 501 kts 225°
2026-05-04 03:09 26.75816 -55.31385 38185 ft 499 kts 225°
2026-05-04 03:10 26.70585 -55.36508 38190 ft 500 kts 225°
2026-05-04 03:10 26.65346 -55.41630 38192 ft 501 kts 225°
2026-05-04 03:11 26.60134 -55.46719 38193 ft 501 kts 225°
2026-05-04 03:11 26.54886 -55.51836 38189 ft 501 kts 225°
2026-05-04 03:12 26.49634 -55.56953 38192 ft 501 kts 225°
2026-05-04 03:12 26.44382 -55.62062 38192 ft 501 kts 225°
2026-05-04 03:13 26.39128 -55.67167 38192 ft 501 kts 225°
2026-05-04 03:13 26.33877 -55.72263 38187 ft 501 kts 225°
2026-05-04 03:14 26.28621 -55.77358 38192 ft 501 kts 225°
2026-05-04 03:14 26.23353 -55.82461 38189 ft 501 kts 225°
2026-05-04 03:15 26.18131 -55.87509 38195 ft 500 kts 225°
2026-05-04 03:15 26.12876 -55.92583 38190 ft 500 kts 225°
2026-05-04 03:16 26.07624 -55.97648 38189 ft 500 kts 225°
2026-05-04 03:16 26.02370 -56.02710 38190 ft 500 kts 225°
2026-05-04 03:17 25.97111 -56.07771 38190 ft 500 kts 225°
2026-05-04 03:17 25.91850 -56.12829 38186 ft 500 kts 225°
2026-05-04 03:18 25.86585 -56.17882 38193 ft 501 kts 225°
2026-05-04 03:18 25.81306 -56.22943 38190 ft 501 kts 225°
2026-05-04 03:19 25.76032 -56.27991 38190 ft 501 kts 225°
2026-05-04 03:19 25.70751 -56.33041 38186 ft 501 kts 225°
2026-05-04 03:20 25.65475 -56.38080 38186 ft 501 kts 225°
2026-05-04 03:20 25.60199 -56.43113 38187 ft 500 kts 225°
2026-05-04 03:21 25.54918 -56.48144 38189 ft 500 kts 225°
2026-05-04 03:21 25.49638 -56.53170 38184 ft 501 kts 224°
2026-05-04 03:22 25.44343 -56.58203 38181 ft 501 kts 224°
2026-05-04 03:22 25.39058 -56.63219 38185 ft 500 kts 224°
2026-05-04 03:23 25.33775 -56.68228 38182 ft 500 kts 224°
2026-05-04 03:23 25.28488 -56.73235 38196 ft 501 kts 224°
2026-05-04 03:24 25.23194 -56.78241 38183 ft 501 kts 224°
2026-05-04 03:24 25.17901 -56.83242 38184 ft 501 kts 224°
2026-05-04 03:25 25.12607 -56.88237 38168 ft 500 kts 224°
2026-05-04 03:25 25.07313 -56.93227 38186 ft 500 kts 224°
2026-05-04 03:26 25.02021 -56.98210 38184 ft 500 kts 224°
2026-05-04 03:26 24.96460 -57.02865 38182 ft 503 kts 219°
2026-05-04 03:27 24.90755 -57.07326 38182 ft 503 kts 218°
2026-05-04 03:27 24.85022 -57.11759 38180 ft 503 kts 218°
2026-05-04 03:28 24.79298 -57.16189 38183 ft 503 kts 219°
2026-05-04 03:28 24.73579 -57.20625 38183 ft 503 kts 219°
2026-05-04 03:29 24.67862 -57.25056 38180 ft 503 kts 219°
2026-05-04 03:29 24.62141 -57.29482 38184 ft 503 kts 218°
2026-05-04 03:30 24.56412 -57.33908 38182 ft 503 kts 218°
2026-05-04 03:30 24.50684 -57.38327 38182 ft 503 kts 219°
2026-05-04 03:31 24.44994 -57.42713 38174 ft 503 kts 218°
2026-05-04 03:31 24.39262 -57.47126 38179 ft 503 kts 218°
2026-05-04 03:32 24.33534 -57.51531 38181 ft 503 kts 218°
2026-05-04 03:32 24.27803 -57.55933 38179 ft 503 kts 218°
2026-05-04 03:33 24.22067 -57.60334 38174 ft 503 kts 218°
2026-05-04 03:33 24.16327 -57.64733 38177 ft 504 kts 218°
2026-05-04 03:34 24.10579 -57.69134 38178 ft 504 kts 218°
2026-05-04 03:34 24.04831 -57.73529 38176 ft 504 kts 218°
2026-05-04 03:35 23.99081 -57.77922 38175 ft 504 kts 218°
2026-05-04 03:35 23.93326 -57.82313 38175 ft 504 kts 218°
2026-05-04 03:36 23.87573 -57.86698 38176 ft 504 kts 218°
2026-05-04 03:36 23.81823 -57.91075 38176 ft 504 kts 218°
2026-05-04 03:37 23.76061 -57.95458 38173 ft 504 kts 218°
2026-05-04 03:37 23.70300 -57.99835 38172 ft 505 kts 218°
2026-05-04 03:38 23.64532 -58.04212 38171 ft 505 kts 218°
2026-05-04 03:38 23.58757 -58.08585 38173 ft 505 kts 218°
2026-05-04 03:39 23.53022 -58.12922 38177 ft 505 kts 218°
2026-05-04 03:39 23.47240 -58.17293 38167 ft 506 kts 218°
2026-05-04 03:40 23.41454 -58.21664 38173 ft 506 kts 218°
2026-05-04 03:40 23.35665 -58.26032 38173 ft 506 kts 218°
2026-05-04 03:41 23.29877 -58.30396 38168 ft 506 kts 218°
2026-05-04 03:41 23.24082 -58.34760 38170 ft 507 kts 218°
2026-05-04 03:42 23.18310 -58.39102 38167 ft 507 kts 218°
2026-05-04 03:42 23.12513 -58.43459 38167 ft 507 kts 218°
2026-05-04 03:43 23.06705 -58.47818 38159 ft 507 kts 218°
2026-05-04 03:43 23.00900 -58.52171 38164 ft 507 kts 218°
2026-05-04 03:44 22.95089 -58.56524 38166 ft 508 kts 218°
2026-05-04 03:44 22.89278 -58.60873 38164 ft 507 kts 217°
2026-05-04 03:45 22.83464 -58.65219 38161 ft 507 kts 217°
2026-05-04 03:45 22.77650 -58.69560 38165 ft 508 kts 217°
2026-05-04 03:46 22.71829 -58.73902 38162 ft 508 kts 217°
2026-05-04 03:46 22.66002 -58.78244 38162 ft 508 kts 217°
2026-05-04 03:47 22.60178 -58.82583 38159 ft 508 kts 217°
2026-05-04 03:47 22.54395 -58.86887 38161 ft 509 kts 217°
2026-05-04 03:48 22.48592 -58.91198 38158 ft 509 kts 217°
2026-05-04 03:48 22.42754 -58.95530 38156 ft 509 kts 217°
2026-05-04 03:49 22.36921 -58.99855 38156 ft 509 kts 217°
2026-05-04 03:49 22.31081 -59.04180 38151 ft 509 kts 217°
2026-05-04 03:50 22.26179 -59.07806 38157 ft 509 kts 217°
2026-05-04 03:50 22.20335 -59.12126 38157 ft 509 kts 217°
2026-05-04 03:51 22.14529 -59.16412 38157 ft 509 kts 217°
2026-05-04 03:51 22.08681 -59.20726 38156 ft 510 kts 217°
2026-05-04 03:52 22.02786 -59.25069 38157 ft 510 kts 217°
2026-05-04 03:52 21.96966 -59.29353 38154 ft 510 kts 217°
2026-05-04 03:53 21.91106 -59.33662 38155 ft 510 kts 217°
2026-05-04 03:53 21.85250 -59.37962 38148 ft 510 kts 217°
2026-05-04 03:54 21.79384 -59.42265 38154 ft 510 kts 217°
2026-05-04 03:54 21.73519 -59.46563 38154 ft 510 kts 217°
2026-05-04 03:55 21.67646 -59.50864 38151 ft 510 kts 217°
2026-05-04 03:55 21.61777 -59.55158 38151 ft 510 kts 217°
2026-05-04 03:56 21.55901 -59.59454 38148 ft 510 kts 217°
2026-05-04 03:56 21.50062 -59.63719 38149 ft 510 kts 217°
2026-05-04 03:57 21.44198 -59.67998 38138 ft 510 kts 217°
2026-05-04 03:57 21.38324 -59.72278 38145 ft 510 kts 217°
2026-05-04 03:58 21.29510 -59.78694 38142 ft 511 kts 217°
2026-05-04 03:58 21.23631 -59.82967 38140 ft 511 kts 217°
2026-05-04 03:59 21.17749 -59.87239 38142 ft 511 kts 217°
2026-05-04 03:59 21.11862 -59.91510 38143 ft 511 kts 217°
2026-05-04 04:00 21.06018 -59.95745 38143 ft 511 kts 217°
2026-05-04 04:00 21.00232 -60.00135 38146 ft 508 kts 224°
2026-05-04 04:01 20.95126 -60.05332 38137 ft 506 kts 228°
2026-05-04 04:01 20.90175 -60.10686 38138 ft 506 kts 229°
2026-05-04 04:02 20.85243 -60.16057 38135 ft 506 kts 229°
2026-05-04 04:02 20.80295 -60.21414 38135 ft 506 kts 228°
2026-05-04 04:03 20.75346 -60.26752 38129 ft 506 kts 228°
2026-05-04 04:03 20.70392 -60.32083 38132 ft 505 kts 228°
2026-05-04 04:04 20.65437 -60.37410 38129 ft 505 kts 228°
2026-05-04 04:04 20.60479 -60.42739 38130 ft 505 kts 228°
2026-05-04 04:05 20.55527 -60.48057 38126 ft 505 kts 228°
2026-05-04 04:05 20.50564 -60.53351 38127 ft 505 kts 227°
2026-05-04 04:06 20.45578 -60.58627 38127 ft 504 kts 227°
2026-05-04 04:06 20.40613 -60.63913 38127 ft 504 kts 227°
2026-05-04 04:07 20.35662 -60.69205 38124 ft 504 kts 227°
2026-05-04 04:07 20.30713 -60.74496 38125 ft 504 kts 227°
2026-05-04 04:08 20.25800 -60.79741 38121 ft 503 kts 227°
2026-05-04 04:08 20.20852 -60.85019 38122 ft 503 kts 227°
2026-05-04 04:09 20.15903 -60.90292 38121 ft 503 kts 227°
2026-05-04 04:09 20.10953 -60.95561 38120 ft 503 kts 227°
2026-05-04 04:10 20.06009 -61.00819 38118 ft 503 kts 227°
2026-05-04 04:10 20.01064 -61.06073 38117 ft 502 kts 227°
2026-05-04 04:11 19.96118 -61.11323 38114 ft 502 kts 227°
2026-05-04 04:11 19.91176 -61.16563 38111 ft 502 kts 227°
2026-05-04 04:12 19.86235 -61.21797 38112 ft 502 kts 227°
2026-05-04 04:12 19.81294 -61.27027 38110 ft 501 kts 227°
2026-05-04 04:13 19.76352 -61.32254 38109 ft 501 kts 227°
2026-05-04 04:13 19.71408 -61.37477 38104 ft 501 kts 226°
2026-05-04 04:14 19.66465 -61.42694 38103 ft 501 kts 226°
2026-05-04 04:14 19.61531 -61.47897 38106 ft 500 kts 226°
2026-05-04 04:15 19.56599 -61.53093 38108 ft 499 kts 226°
2026-05-04 04:15 19.54137 -61.55685 37946 ft 497 kts 227°
2026-05-04 04:15 19.51691 -61.58259 37684 ft 495 kts 226°
2026-05-04 04:16 19.49247 -61.60829 37433 ft 495 kts 226°
2026-05-04 04:16 19.46799 -61.63403 37178 ft 496 kts 226°
2026-05-04 04:16 19.44348 -61.65979 36928 ft 496 kts 226°
2026-05-04 04:16 19.41902 -61.68550 36562 ft 493 kts 226°
2026-05-04 04:17 19.39472 -61.71100 36001 ft 491 kts 227°
2026-05-04 04:17 19.37055 -61.73636 35446 ft 487 kts 226°
2026-05-04 04:17 19.34655 -61.76152 34965 ft 483 kts 226°
2026-05-04 04:17 19.32271 -61.78650 34441 ft 480 kts 226°
2026-05-04 04:18 19.29904 -61.81129 33893 ft 478 kts 226°
2026-05-04 04:18 19.27550 -61.83597 33375 ft 474 kts 226°
2026-05-04 04:18 19.25223 -61.86036 32874 ft 470 kts 226°
2026-05-04 04:18 19.22942 -61.88425 32396 ft 465 kts 225°
2026-05-04 04:19 19.20649 -61.90826 31916 ft 461 kts 226°
2026-05-04 04:19 19.18379 -61.93200 31434 ft 458 kts 225°
2026-05-04 04:19 19.16121 -61.95562 30971 ft 454 kts 225°
2026-05-04 04:19 19.13886 -61.97898 30492 ft 451 kts 225°
2026-05-04 04:20 19.11664 -62.00219 30001 ft 447 kts 225°
2026-05-04 04:20 19.09459 -62.02522 29503 ft 443 kts 225°
2026-05-04 04:20 19.07277 -62.04799 29039 ft 438 kts 225°
2026-05-04 04:20 19.05121 -62.07048 28591 ft 434 kts 225°
2026-05-04 04:21 19.02982 -62.09279 28146 ft 430 kts 225°
2026-05-04 04:21 19.00865 -62.11486 27691 ft 425 kts 225°
2026-05-04 04:21 18.98767 -62.13673 27249 ft 422 kts 225°
2026-05-04 04:21 18.96693 -62.15835 26796 ft 418 kts 225°
2026-05-04 04:22 18.94628 -62.17990 26348 ft 415 kts 225°
2026-05-04 04:22 18.92583 -62.20117 25912 ft 412 kts 225°
2026-05-04 04:22 18.90547 -62.22234 25469 ft 409 kts 225°
2026-05-04 04:22 18.88528 -62.24333 25026 ft 406 kts 224°
2026-05-04 04:23 18.86522 -62.26418 24588 ft 404 kts 224°
2026-05-04 04:23 18.84526 -62.28493 24150 ft 402 kts 224°
2026-05-04 04:23 18.82539 -62.30558 23697 ft 400 kts 224°
2026-05-04 04:23 18.80591 -62.32581 23218 ft 397 kts 224°
2026-05-04 04:24 18.78632 -62.34614 22762 ft 393 kts 225°
2026-05-04 04:24 18.76695 -62.36625 22314 ft 389 kts 225°
2026-05-04 04:24 18.74775 -62.38616 21884 ft 385 kts 225°
2026-05-04 04:24 18.72878 -62.40583 21460 ft 381 kts 225°
2026-05-04 04:25 18.71000 -62.42531 21019 ft 377 kts 225°
2026-05-04 04:25 18.69140 -62.44458 20594 ft 373 kts 226°
2026-05-04 04:25 18.67302 -62.46364 20172 ft 369 kts 225°
2026-05-04 04:25 18.65477 -62.48254 19763 ft 365 kts 226°
2026-05-04 04:26 18.63674 -62.50120 19320 ft 362 kts 226°
2026-05-04 04:26 18.61887 -62.51972 18910 ft 359 kts 225°
2026-05-04 04:26 18.60114 -62.53807 18507 ft 355 kts 226°
2026-05-04 04:26 18.58358 -62.55624 18057 ft 352 kts 226°
2026-05-04 04:27 18.56622 -62.57421 17633 ft 348 kts 226°
2026-05-04 04:27 18.54903 -62.59200 17225 ft 345 kts 226°
2026-05-04 04:27 18.53197 -62.60963 16821 ft 343 kts 226°
2026-05-04 04:27 18.51501 -62.62718 16432 ft 342 kts 225°
2026-05-04 04:28 18.49801 -62.64475 16024 ft 342 kts 226°
2026-05-04 04:28 18.48106 -62.66225 15607 ft 341 kts 226°
2026-05-04 04:28 18.46416 -62.67971 15200 ft 340 kts 225°
2026-05-04 04:28 18.44732 -62.69711 14803 ft 339 kts 225°
2026-05-04 04:29 18.43047 -62.71449 14393 ft 339 kts 225°
2026-05-04 04:29 18.41366 -62.73183 13985 ft 338 kts 225°
2026-05-04 04:29 18.39685 -62.74917 13548 ft 337 kts 225°
2026-05-04 04:29 18.38018 -62.76636 13132 ft 335 kts 225°
2026-05-04 04:30 18.36357 -62.78349 12740 ft 333 kts 224°
2026-05-04 04:30 18.34783 -62.80120 12287 ft 332 kts 233°
2026-05-04 04:30 18.33613 -62.82198 11894 ft 328 kts 244°
2026-05-04 04:30 18.32631 -62.84356 11488 ft 326 kts 245°
2026-05-04 04:31 18.31665 -62.86513 11093 ft 325 kts 244°
2026-05-04 04:31 18.30703 -62.88648 10754 ft 319 kts 244°
2026-05-04 04:31 18.29767 -62.90715 10608 ft 306 kts 244°
2026-05-04 04:31 18.28869 -62.92694 10497 ft 294 kts 244°
2026-05-04 04:32 18.28005 -62.94595 10305 ft 284 kts 244°
2026-05-04 04:32 18.27156 -62.96460 10011 ft 281 kts 244°
2026-05-04 04:32 18.26296 -62.98347 9722 ft 294 kts 244°
2026-05-04 04:32 18.25400 -63.00312 9514 ft 300 kts 244°
2026-05-04 04:33 18.24498 -63.02290 9104 ft 301 kts 244°
2026-05-04 04:33 18.23595 -63.04271 8644 ft 298 kts 243°
2026-05-04 04:33 18.22700 -63.06230 8226 ft 298 kts 244°
2026-05-04 04:33 18.21802 -63.08198 7877 ft 299 kts 243°
2026-05-04 04:34 18.20903 -63.10166 7543 ft 299 kts 243°
2026-05-04 04:34 18.20001 -63.12139 7257 ft 298 kts 243°
2026-05-04 04:34 18.19131 -63.14044 7067 ft 279 kts 243°
2026-05-04 04:34 18.18312 -63.15840 6672 ft 268 kts 243°
2026-05-04 04:35 18.17525 -63.17561 6270 ft 262 kts 243°
2026-05-04 04:35 18.16732 -63.19292 5980 ft 264 kts 243°
2026-05-04 04:35 18.15939 -63.21023 5694 ft 262 kts 243°
2026-05-04 04:35 18.15159 -63.22728 5432 ft 253 kts 243°
2026-05-04 04:36 18.14418 -63.24353 5146 ft 240 kts 243°
2026-05-04 04:36 18.13705 -63.25911 4866 ft 236 kts 242°
2026-05-04 04:36 18.12996 -63.27460 4578 ft 235 kts 242°
2026-05-04 04:36 18.12225 -63.28964 4222 ft 231 kts 233°
2026-05-04 04:37 18.08328 -63.30782 2514 ft 204 kts 163°
2026-05-04 04:37 18.06955 -63.30513 2103 ft 195 kts 165°
2026-05-04 04:38 18.05661 -63.30280 1990 ft 183 kts 166°
2026-05-04 04:38 18.04413 -63.30039 1989 ft 182 kts 161°
2026-05-04 04:38 18.03629 -63.29769 1991 ft 177 kts 151°
2026-05-04 04:38 18.02564 -63.29165 1987 ft 173 kts 139°
2026-05-04 04:39 18.01991 -63.28111 1999 ft 168 kts 100°
2026-05-04 04:39 18.01871 -63.26910 1988 ft 168 kts 89°
2026-05-04 04:39 18.02015 -63.25695 1978 ft 168 kts 82°
2026-05-04 04:39 18.02175 -63.24460 1995 ft 172 kts 83°
2026-05-04 04:40 18.02348 -63.23216 1986 ft 173 kts 83°
2026-05-04 04:40 18.02522 -63.21976 1896 ft 169 kts 83°
2026-05-04 04:40 18.02691 -63.20774 1663 ft 163 kts 83°
2026-05-04 04:40 18.02851 -63.19634 1435 ft 151 kts 81°
2026-05-04 04:41 18.03004 -63.18559 1251 ft 148 kts 81°
2026-05-04 04:41 18.03156 -63.17494 1050 ft 145 kts 83°
2026-05-04 04:41 18.03298 -63.16483 850 ft 135 kts 83°
2026-05-04 04:41 18.03433 -63.15528 682 ft 130 kts 82°
2026-05-04 04:42 18.03563 -63.14594 552 ft 128 kts 80°
2026-05-04 04:42 18.03701 -63.13680 310 ft 126 kts 81°
2026-05-04 04:42 18.03824 -63.12756 222 ft 133 kts 80°
2026-05-04 04:42 18.03964 -63.11800 54 ft 131 kts 81°
2026-05-04 04:43 18.04089 -63.10927 33 ft 98 kts 82°
2026-05-04 04:43 18.04156 -63.10448 34 ft 51 kts 82°
2026-05-04 04:43 18.04196 -63.10168 33 ft 32 kts 81°
2026-05-04 04:43 18.04223 -63.09987 33 ft 14 kts 74°
2026-05-04 04:44 18.04273 -63.09905 33 ft 12 kts 56°
2026-05-04 04:44 18.04258 -63.09871 33 ft 5 kts 188°
2026-05-04 04:44 18.04222 -63.09977 33 ft 27 kts 261°
2026-05-04 04:44 18.04188 -63.10217 33 ft 35 kts 261°
2026-05-04 04:45 18.04151 -63.10475 34 ft 35 kts 261°
2026-05-04 04:45 18.04114 -63.10725 33 ft 34 kts 261°
2026-05-04 04:45 18.04082 -63.10960 34 ft 28 kts 262°
2026-05-04 04:47 18.04267 -63.11298 35 ft 8 kts 26°
2026-05-04 04:47 18.04310 -63.11293 35 ft 4 kts 354°
2026-05-04 04:47 18.04328 -63.11295 35 ft 0 kts 353°